| time (UTC) | temp F | wind direction | speed knots | gust knots | rain 1hr in | rain 24hr in | rain mn in | humidity % | barometer mb |
| 20260504213052 | 54 | 291 | 0.0 | 0.9 | 0.00 | 0.34 | 0.34 | 92 | 1010.2 |
| 20260504211554 | 55 | 0 | 0.0 | 3.5 | 0.00 | 0.34 | 0.34 | 91 | 1010.6 |
| 20260504210051 | 55 | 0 | 0.9 | 4.3 | 0.00 | 0.34 | 0.34 | 88 | 1010.9 |
| 20260504204549 | 55 | 101 | 0.9 | 7.0 | 0.03 | 0.34 | 0.34 | 87 | 1011.1 |
| 20260504203049 | 56 | 0 | 0.9 | 11.3 | 0.03 | 0.34 | 0.34 | 85 | 1011.2 |
| 20260504201543 | 57 | 4 | 0.9 | 12.2 | 0.03 | 0.34 | 0.34 | 86 | 1011.2 |
| 20260504200055 | 58 | 0 | 0.9 | 7.0 | 0.01 | 0.33 | 0.33 | 90 | 1010.6 |
| 20260504194545 | 59 | 196 | 0.0 | 1.7 | 0.00 | 0.31 | 0.31 | 92 | 1010.3 |
| 20260504193047 | 59 | 0 | 0.0 | 0.9 | 0.00 | 0.31 | 0.31 | 92 | 1010.0 |
| 20260504191554 | 59 | 140 | 0.0 | 2.6 | 0.00 | 0.31 | 0.31 | 91 | 1009.9 |
| 20260504190059 | 59 | 159 | 0.0 | 1.7 | 0.00 | 0.31 | 0.31 | 91 | 1010.0 |
| 20260504184609 | 59 | 164 | 0.9 | 3.5 | 0.00 | 0.31 | 0.31 | 91 | 1009.8 |
| 20260504183052 | 59 | 227 | 0.0 | 2.6 | 0.00 | 0.31 | 0.31 | 90 | 1009.4 |
| 20260504181548 | 59 | 0 | 0.0 | 3.5 | 0.00 | 0.31 | 0.31 | 90 | 1009.2 |
| 20260504180049 | 60 | 0 | 0.9 | 2.6 | 0.00 | 0.31 | 0.31 | 89 | 1009.2 |
| 20260504174547 | 60 | 0 | 0.0 | 2.6 | 0.00 | 0.31 | 0.31 | 89 | 1009.1 |
| 20260504173052 | 60 | 204 | 1.7 | 5.2 | 0.00 | 0.31 | 0.31 | 88 | 1009.4 |
| 20260504171549 | 60 | 151 | 1.7 | 4.3 | 0.00 | 0.31 | 0.31 | 88 | 1009.5 |
| 20260504081542 | 66 | 272 | 0.9 | 3.5 | 0.00 | 0.00 | 0.00 | 68 | 1011.0 |
| 20260504044548 | 55 | 0 | 0.0 | 0.9 | 0.00 | 0.00 | 0.00 | 91 | 1011.5 |
| 20260504043042 | 55 | 0 | 0.0 | 0.9 | 0.00 | 0.00 | 0.00 | 90 | 1011.5 |
| 20260504041541 | 55 | 0 | 0.0 | 0.0 | 0.00 | 0.00 | 0.00 | 90 | 1011.6 |
| 20260504040054 | 55 | 0 | 0.0 | 0.0 | 0.00 | 0.00 | 0.00 | 90 | 1011.7 |
| 20260504034556 | 56 | 0 | 0.0 | 0.0 | 0.00 | 0.00 | 0.00 | 90 | 1011.6 |
| 20260504033109 | 56 | 0 | 0.0 | 0.9 | 0.00 | 0.00 | 0.00 | 89 | 1011.8 |
| 20260504031543 | 56 | 0 | 0.0 | 0.0 | 0.00 | 0.00 | 0.00 | 89 | 1011.9 |
| 20260504030046 | 56 | 0 | 0.0 | 0.9 | 0.00 | 0.00 | 0.00 | 90 | 1012.0 |
| 20260504024541 | 55 | 0 | 0.0 | 0.9 | 0.00 | 0.00 | 0.00 | 90 | 1011.9 |
| 20260504023056 | 55 | 0 | 0.0 | 0.9 | 0.00 | 0.00 | 0.00 | 90 | 1012.0 |
| 20260504021544 | 55 | 291 | 0.9 | 2.6 | 0.00 | 0.00 | 0.00 | 90 | 1012.1 |
| 20260504020045 | 55 | 90 | 0.9 | 3.5 | 0.00 | 0.00 | 0.00 | 91 | 1012.2 |
| 20260504014549 | 55 | 352 | 0.0 | 1.7 | 0.00 | 0.00 | 0.00 | 91 | 1012.3 |
| 20260504013047 | 55 | 0 | 0.0 | 0.0 | 0.00 | 0.00 | 0.00 | 91 | 1012.3 |
| 20260504011548 | 55 | 0 | 0.0 | 0.0 | 0.00 | 0.00 | 0.00 | 91 | 1012.5 |
| 20260504010054 | 55 | 0 | 0.0 | 0.0 | 0.00 | 0.00 | 0.00 | 91 | 1012.5 |
| 20260504004600 | 56 | 0 | 0.0 | 0.0 | 0.00 | 0.00 | 0.00 | 91 | 1012.7 |
| 20260504003042 | 56 | 0 | 0.0 | 0.0 | 0.00 | 0.00 | 0.00 | 91 | 1012.8 |
| 20260504001543 | 56 | 0 | 0.0 | 0.0 | 0.00 | 0.00 | 0.00 | 91 | 1012.8 |
| 20260504000045 | 56 | 0 | 0.0 | 0.0 | 0.00 | 0.00 | 0.00 | 91 | 1012.9 |
| 20260503234543 | 55 | 0 | 0.0 | 0.0 | 0.00 | 0.00 | 0.00 | 92 | 1013.0 |
| 20260503233044 | 55 | 0 | 0.0 | 0.9 | 0.00 | 0.00 | 0.00 | 92 | 1012.9 |
| 20260503231542 | 56 | 0 | 0.0 | 0.0 | 0.00 | 0.00 | 0.00 | 92 | 1013.1 |
| 20260503230046 | 55 | 0 | 0.0 | 0.9 | 0.00 | 0.00 | 0.00 | 91 | 1013.0 |
| 20260503224543 | 55 | 0 | 0.0 | 0.0 | 0.00 | 0.00 | 0.00 | 92 | 1013.1 |
| 20260503223054 | 55 | 0 | 0.0 | 0.9 | 0.00 | 0.00 | 0.00 | 91 | 1013.2 |
| 20260503221551 | 56 | 260 | 0.0 | 0.0 | 0.00 | 0.00 | 0.00 | 90 | 1013.2 |
| 20260503220050 | 56 | 0 | 0.0 | 0.0 | 0.00 | 0.00 | 0.00 | 89 | 1013.4 |
| 20260503214543 | 56 | 0 | 0.0 | 0.0 | 0.00 | 0.00 | 0.00 | 88 | 1013.4 |